TimeCDT,TemperatureF,Dew PointF,Humidity,Sea Level PressureIn,VisibilityMPH,Wind Direction,Wind SpeedMPH,Gust SpeedMPH,PrecipitationIn,Events,Conditions,WindDirDegrees,DateUTC
12:56 AM,51.1,28.0,41,29.90,-9999.0,NW,11.5,-,N/A,,Unknown,320,2012-09-20 05:56:00
1:56 AM,50.0,28.0,43,29.91,-9999.0,NNW,9.2,-,N/A,,Unknown,330,2012-09-20 06:56:00
2:56 AM,48.0,28.9,48,29.91,-9999.0,NNW,6.9,-,N/A,,Unknown,330,2012-09-20 07:56:00
3:56 AM,46.9,30.0,52,29.92,-9999.0,NW,5.8,-,N/A,,Unknown,320,2012-09-20 08:56:00
4:56 AM,45.0,30.0,56,29.94,-9999.0,NNW,6.9,-,N/A,,Unknown,330,2012-09-20 09:56:00
5:56 AM,43.0,30.9,62,29.96,-9999.0,WNW,9.2,-,N/A,,Unknown,300,2012-09-20 10:56:00
6:56 AM,42.1,30.9,65,29.97,-9999.0,WNW,8.1,-,N/A,,Unknown,290,2012-09-20 11:56:00
7:56 AM,45.0,32.0,60,29.98,-9999.0,WNW,9.2,-,N/A,,Unknown,300,2012-09-20 12:56:00
8:56 AM,50.0,33.1,52,29.97,-9999.0,NW,9.2,-,N/A,,Unknown,310,2012-09-20 13:56:00
9:56 AM,55.9,33.1,42,29.97,-9999.0,NNW,15.0,-,N/A,,Unknown,330,2012-09-20 14:56:00
10:56 AM,60.1,30.9,33,29.97,-9999.0,NNW,15.0,-,N/A,,Unknown,330,2012-09-20 15:56:00
11:56 AM,63.0,30.0,29,29.96,-9999.0,NNW,19.6,25.3,N/A,,Unknown,330,2012-09-20 16:56:00
12:56 PM,64.0,30.9,29,29.96,-9999.0,NNW,15.0,24.2,N/A,,Unknown,340,2012-09-20 17:56:00
1:56 PM,64.9,28.9,26,29.93,-9999.0,North,11.5,21.9,N/A,,Unknown,360,2012-09-20 18:56:00
2:56 PM,66.9,28.9,24,29.91,-9999.0,NNW,9.2,-,N/A,,Unknown,340,2012-09-20 19:56:00
3:56 PM,66.0,27.0,23,29.90,-9999.0,West,15.0,20.7,N/A,,Unknown,280,2012-09-20 20:56:00
4:56 PM,66.0,25.0,21,29.88,-9999.0,WNW,13.8,-,N/A,,Unknown,300,2012-09-20 21:56:00
5:56 PM,64.0,27.0,25,29.88,-9999.0,NW,15.0,23.0,N/A,,Unknown,310,2012-09-20 22:56:00
6:56 PM,62.1,27.0,26,29.88,-9999.0,NW,10.4,-,N/A,,Unknown,310,2012-09-20 23:56:00
7:56 PM,60.1,28.9,31,29.89,-9999.0,NW,6.9,-,N/A,,Unknown,320,2012-09-21 00:56:00
8:56 PM,57.0,32.0,39,29.88,-9999.0,NW,5.8,-,N/A,,Unknown,320,2012-09-21 01:56:00
9:56 PM,55.9,35.1,45,29.88,-9999.0,Calm,Calm,-,N/A,,Unknown,0,2012-09-21 02:56:00
10:56 PM,53.1,35.1,50,29.87,-9999.0,Calm,Calm,-,N/A,,Unknown,0,2012-09-21 03:56:00
11:56 PM,53.1,37.0,55,29.86,-9999.0,WSW,6.9,-,N/A,,Unknown,240,2012-09-21 04:56:00